Theta_e
306 307 307 308 308 308 308 308 309 310 310 310 311 313 316 318 320 321 322 322 322 322 322 323 324 323 322 320 320 319 318 317 316 316 316 315 315 315 315 315 315 313 312 312 311 313 315 315 312 310 308 307 306 305 304 304 305 307 309 310 309 309 309 310 310 310 309 308 308
307 307 308 310 310 309 309 309 309 309 310 310 310 311 313 316 318 319 319 321 321 322 323 323 323 323 323 322 321 320 318 317 316 315 315 314 314 315 315 314 313 313 313 314 314 313 312 310 309 307 306 305 304 304 303 303 304 305 306 306 306 306 306 307 307 307 306 306 305
307 308 309 309 309 309 309 309 309 309 309 309 309 309 311 313 314 315 316 318 318 319 320 321 320 320 321 322 322 320 319 317 317 316 315 314 313 313 313 313 312 313 313 313 311 309 308 306 307 307 306 305 304 304 304 304 304 304 304 304 304 304 304 304 303 302 302 302 302
306 307 308 308 308 308 308 309 309 308 309 310 309 310 312 313 314 315 316 316 317 318 318 318 318 318 319 320 320 319 319 317 317 316 316 314 312 311 310 310 310 309 308 308 307 306 305 305 306 306 306 305 304 304 305 305 305 305 304 303 303 302 302 302 301 301 301 300 299
306 306 307 307 307 307 308 308 308 308 308 310 312 314 315 316 316 316 317 318 318 319 319 319 319 318 318 318 318 318 318 317 317 317 316 313 311 310 309 308 307 306 306 306 306 306 306 305 306 307 306 305 306 306 306 305 304 304 303 302 301 301 300 300 300 300 299 299 298
305 306 306 307 307 307 307 308 307 307 308 310 314 315 315 316 316 316 316 316 317 317 318 319 320 319 319 317 317 316 316 316 316 315 315 313 312 311 310 309 307 307 306 306 306 306 306 306 307 307 306 306 306 306 305 304 303 302 301 300 299 299 299 298 298 298 298 297 296
305 306 306 307 307 307 307 307 307 307 308 311 312 312 313 313 314 314 314 315 315 315 316 317 317 318 319 318 317 316 315 314 313 313 313 313 312 311 310 309 308 307 306 306 306 306 306 305 307 307 307 306 306 305 304 302 301 300 299 299 298 297 297 297 297 297 296 295 293
305 305 305 306 306 306 306 306 307 308 309 312 311 310 310 311 311 311 312 313 313 314 314 315 314 315 316 316 315 315 314 313 312 312 311 310 309 308 308 307 307 307 307 307 307 307 306 305 306 306 306 305 305 304 302 301 299 298 297 297 296 295 295 295 295 295 295 294 293
304 304 305 305 305 306 306 306 306 308 309 310 309 309 309 309 309 309 310 310 311 311 311 312 311 311 311 311 311 311 312 312 311 311 310 309 308 307 307 307 307 307 307 307 306 306 305 305 304 304 304 303 303 302 301 300 298 296 295 295 295 294 294 294 294 294 293 293 292
303 303 304 304 305 305 306 306 307 308 308 308 308 308 308 308 308 308 308 308 308 308 308 309 309 309 309 308 308 308 310 311 311 310 310 309 308 307 307 306 306 305 305 305 304 303 303 303 302 301 301 300 300 300 299 298 296 295 294 294 294 294 294 294 293 292 292 292 292
301 302 303 304 304 305 306 306 307 307 307 307 307 307 307 307 306 306 306 306 306 305 305 305 306 306 307 308 308 308 309 309 309 308 307 307 306 305 305 304 304 303 303 303 302 302 301 300 299 299 299 299 298 298 297 296 295 294 294 294 294 294 294 294 293 292 291 291 291
301 301 302 303 303 304 305 305 306 306 306 305 305 305 305 305 304 305 305 304 304 303 303 303 303 304 305 308 308 309 308 307 307 306 305 304 304 303 303 302 302 301 301 301 301 301 300 299 298 298 298 297 297 297 296 296 294 294 293 293 292 292 293 293 293 291 290 290 290
300 301 301 302 303 303 304 304 304 304 303 303 303 304 304 303 304 304 304 303 303 302 302 302 302 302 303 305 306 305 305 305 304 304 303 302 301 301 300 300 300 300 300 300 299 298 298 297 297 297 297 296 295 295 295 294 293 293 292 292 291 291 292 292 291 290 289 289 289
300 300 301 301 301 302 302 302 302 302 301 301 301 302 302 302 303 303 303 302 302 302 302 303 303 303 303 303 302 302 302 302 302 301 300 300 299 299 298 298 298 298 297 297 296 296 295 296 296 296 295 294 293 293 293 293 292 292 291 291 290 291 291 291 290 289 289 289 289
299 299 300 300 300 300 300 300 300 300 300 299 300 300 300 301 301 302 302 301 301 302 302 303 303 302 302 302 301 301 301 301 300 299 298 298 298 297 297 296 296 296 295 295 295 295 294 294 294 293 293 292 292 292 292 293 292 291 290 290 290 290 290 290 290 290 290 289 290
298 298 298 299 299 299 299 298 299 299 298 298 298 299 299 299 300 300 300 300 301 301 302 301 301 301 301 302 301 301 300 300 299 298 298 297 297 297 296 296 295 295 295 295 294 294 294 293 293 293 292 292 292 292 292 292 292 291 291 291 291 291 291 291 291 291 291 290 290
297 297 297 297 297 297 297 297 297 297 297 296 297 297 298 298 299 299 300 300 300 300 300 299 300 300 300 300 300 299 299 299 298 298 297 297 297 297 296 296 296 296 295 294 294 294 294 294 293 293 293 293 293 293 293 293 292 292 293 292 292 292 292 292 292 291 290 290 290
295 296 296 296 296 296 296 296 296 295 295 295 296 297 297 297 298 298 298 299 299 299 298 299 299 299 298 298 298 298 298 297 297 297 297 296 296 296 296 296 296 295 295 294 294 294 294 294 294 293 293 293 293 293 293 292 292 292 292 292 292 292 292 292 291 291 290 289 290
294 294 295 295 295 294 295 295 295 295 294 295 295 296 296 297 297 297 297 298 298 298 298 297 297 297 297 297 297 297 297 296 296 296 295 295 295 295 295 295 295 295 294 294 294 294 294 293 293 293 293 293 293 293 292 292 292 292 292 292 292 292 291 291 291 290 289 289 290
293 293 294 294 294 294 294 295 295 295 295 295 295 296 296 297 297 297 297 297 297 297 297 297 296 296 296 296 296 296 295 295 295 295 295 295 294 294 294 294 294 294 294 294 293 293 293 292 292 292 292 292 292 292 292 292 292 292 291 292 291 291 291 291 290 290 290 290 290
295 295 295 296 295 295 295 295 296 296 296 296 296 296 296 297 296 296 297 297 297 296 296 296 295 295 295 295 295 295 295 295 294 294 294 294 294 293 293 293 293 293 293 293 293 292 292 292 292 292 292 292 292 292 291 291 291 291 291 291 291 291 291 291 290 290 290 290 290
296 296 296 296 296 296 296 296 296 296 296 296 296 296 296 296 296 296 296 296 296 296 296 295 295 295 294 294 294 294 294 294 294 294 294 294 293 292 292 292 291 291 291 291 292 292 292 292 292 292 292 292 292 291 291 291 290 289 289 289 289 289 289 289 289 289 289 290 290
296 296 296 296 296 296 296 296 296 296 296 296 296 296 296 296 296 296 296 296 296 295 295 295 295 294 294 294 294 293 293 294 294 293 293 292 291 291 291 291 291 290 290 291 291 291 292 292 292 292 292 291 291 290 289 289 289 288 288 288 288 288 288 287 287 287 288 289 289
295 296 296 296 296 296 296 296 296 295 295 295 295 295 295 295 296 296 295 295 295 295 294 294 294 294 294 294 293 293 292 292 292 291 290 290 291 292 292 292 292 292 292 292 293 293 293 292 292 291 291 290 289 289 289 288 288 288 288 287 287 287 287 287 287 287 288 288 289
295 295 296 296 296 296 296 295 295 295 295 295 295 295 295 295 295 295 295 295 294 294 294 294 294 294 294 294 293 291 290 289 289 290 290 291 291 292 293 293 294 294 294 295 296 296 295 294 292 291 289 289 289 288 288 288 288 288 287 287 287 287 286 286 286 286 286 287 287
295 295 295 295 295 295 295 295 295 295 295 294 294 294 294 294 294 294 294 294 294 294 294 294 294 294 294 293 292 290 289 289 289 290 290 292 293 293 294 295 295 295 296 296 297 296 295 295 293 291 289 288 288 288 288 287 287 287 287 286 286 286 285 285 285 285 285 285 286
294 294 294 295 295 294 294 294 294 294 294 294 294 294 294 294 294 294 294 294 294 294 294 294 294 294 294 293 292 291 292 292 291 292 292 293 294 294 294 295 295 295 296 297 297 296 296 295 294 292 290 288 287 287 287 287 286 286 285 285 285 285 285 284 284 285 284 284 284
294 294 294 294 294 294 294 294 294 294 294 293 294 294 294 294 294 293 294 293 294 294 294 294 294 294 294 293 293 293 293 293 293 294 294 294 294 293 293 294 294 295 296 297 297 296 296 295 294 293 291 289 287 287 287 286 286 286 285 285 285 284 284 284 284 284 284 284 284
293 293 293 293 293 293 293 293 293 293 293 293 294 293 293 293 293 293 293 293 293 293 293 293 294 294 293 293 293 293 293 293 293 293 293 293 293 293 294 293 294 295 296 297 297 296 295 295 294 293 292 290 288 287 286 286 286 285 285 285 284 284 284 284 284 284 284 284 284
293 292 292 292 292 292 293 293 293 293 293 293 293 293 293 293 293 293 293 293 292 292 292 292 292 292 291 291 291 291 291 292 292 292 292 292 292 293 293 294 294 295 295 296 296 295 295 294 293 292 291 290 287 286 285 285 285 285 284 284 284 284 284 284 284 284 284 284 284
292 292 292 292 292 292 292 292 293 293 293 293 293 293 293 293 293 292 292 292 291 291 291 290 290 290 290 290 290 290 290 290 290 290 290 290 291 292 292 292 293 294 295 295 295 295 294 293 292 292 291 290 287 285 284 283 283 283 283 284 284 283 284 284 283 283 283 283 283
292 292 291 291 291 291 292 292 292 292 292 292 292 292 292 292 292 291 291 291 291 290 290 289 289 289 289 289 289 289 289 289 289 290 290 291 291 291 292 292 292 293 294 295 295 294 293 293 292 291 290 289 286 284 282 282 282 282 282 282 282 283 283 283 283 283 283 283 283
291 291 291 291 291 291 291 291 291 291 291 291 291 291 291 291 291 291 291 291 290 290 289 289 288 288 288 288 288 288 288 289 289 290 290 290 291 291 291 291 292 293 294 294 294 293 293 292 291 291 290 288 286 283 281 281 282 282 282 282 282 282 282 283 283 283 282 282 282
291 291 291 290 290 291 291 291 291 291 291 290 290 290 290 290 290 290 290 290 290 289 289 289 288 288 288 288 288 288 288 289 288 289 289 289 290 290 290 290 291 293 294 294 293 293 292 291 291 290 289 288 285 283 282 282 282 282 282 282 282 282 282 282 282 281 281 280 280
290 290 290 290 290 290 290 290 290 290 290 290 290 290 290 289 289 289 289 289 289 288 288 288 287 286 286 286 287 287 287 287 287 287 287 287 288 288 289 290 291 292 293 293 292 292 291 291 290 289 288 286 284 282 282 282 282 281 281 280 280 280 280 279 278 278 277 277 277
290 290 289 289 289 289 289 289 289 289 289 289 289 289 289 288 288 288 288 288 288 287 286 286 285 284 284 284 284 285 285 284 285 285 286 285 285 286 287 287 289 290 291 291 291 291 290 290 289 288 287 284 282 281 280 279 279 278 277 277 277 277 276 276 276 276 276 276 276
289 289 288 288 288 288 288 289 288 288 288 288 288 288 287 287 287 287 287 287 286 285 285 285 284 283 283 282 282 282 282 282 282 283 283 284 284 283 283 283 283 286 289 290 290 289 289 289 288 287 285 281 278 277 276 276 275 275 275 275 275 275 275 275 276 276 276 277 278
287 287 287 287 287 287 287 287 287 287 286 286 287 287 287 287 287 287 286 285 283 283 284 283 282 281 280 279 279 279 279 279 280 280 279 280 280 280 279 279 279 282 286 289 289 289 289 288 288 287 284 279 276 275 274 274 274 274 274 274 274 274 274 274 275 276 277 278 282
287 286 286 286 286 286 286 286 286 286 286 286 286 286 287 287 287 286 285 283 281 281 281 281 279 279 279 280 279 278 278 278 279 279 278 277 278 279 279 277 277 280 284 289 290 289 289 289 288 287 285 280 275 274 274 274 274 274 274 274 274 274 274 274 274 274 276 278 284
286 286 285 286 286 286 286 286 285 285 285 285 286 286 286 286 286 286 284 282 280 280 279 279 278 278 279 281 278 277 277 277 277 277 278 278 280 282 282 277 276 278 282 288 290 290 289 289 289 288 286 280 275 274 274 274 274 273 273 273 273 273 274 273 273 273 274 275 280
286 285 285 286 286 286 285 285 285 285 285 285 285 286 286 287 286 285 283 281 280 280 279 278 278 278 279 281 278 277 276 277 276 277 278 280 280 282 282 277 276 276 278 284 289 290 290 290 289 289 286 280 275 274 274 274 274 273 273 273 273 273 273 273 273 272 272 272 273
Wind_Speed
6 6 5 5 4 4 3 3 3 2 2 1 1 1 0 0 1 2 2 2 2 2 2 1 1 1 2 2 3 3 3 3 4 3 4 4 4 5 5 6 6 6 6 6 6 5 5 4 4 3 2 3 3 3 2 2 3 3 3 3 2 2 2 2 3 3 3 3 2
7 7 6 6 5 5 4 4 4 4 3 2 2 1 1 1 2 2 3 3 3 2 2 1 1 1 2 2 3 3 3 4 4 4 5 5 5 6 6 6 6 6 6 6 6 5 4 4 4 3 3 3 3 3 3 3 3 3 3 3 2 2 1 0 0 1 1 1 1
7 7 7 7 7 6 5 5 5 6 5 4 3 2 3 3 3 3 4 4 4 4 3 2 2 3 3 4 4 4 4 5 5 6 6 5 5 5 5 5 5 5 5 5 5 5 4 4 4 4 3 3 3 3 3 3 3 3 4 4 3 3 3 2 2 2 2 2 3
6 6 6 6 7 6 5 5 6 6 6 5 4 4 4 5 4 4 4 5 6 6 5 4 4 4 5 6 6 6 6 6 7 7 7 7 6 6 5 4 5 5 5 5 5 5 5 5 4 3 3 4 4 4 3 3 3 3 3 3 3 3 3 3 3 3 3 4 4
6 6 6 6 6 6 5 5 5 5 5 4 4 5 5 5 5 5 5 6 6 6 6 7 6 5 6 6 7 7 7 7 7 7 7 7 6 6 6 6 5 4 4 5 5 6 6 5 3 3 3 4 3 3 4 4 4 3 3 2 3 3 3 4 3 3 3 3 4
7 7 6 6 7 6 5 5 5 5 4 4 7 7 7 6 6 6 6 6 6 6 7 8 6 6 6 7 8 8 7 7 6 6 6 6 6 6 6 6 5 4 4 4 5 5 5 5 3 3 3 3 3 3 4 5 4 3 3 2 2 2 2 2 2 2 2 2 3
7 8 8 8 8 7 7 6 5 5 5 6 8 9 8 7 7 7 7 6 6 6 6 6 6 6 7 7 7 7 7 7 6 6 7 6 7 7 7 7 7 6 5 4 4 4 4 4 3 3 2 2 2 2 3 3 3 3 3 2 1 1 1 1 1 1 1 2 3
7 8 8 8 9 9 8 8 6 6 6 7 8 9 9 9 8 8 7 7 6 6 5 5 7 7 7 7 7 7 7 7 7 8 8 8 9 9 8 8 7 7 7 6 6 6 5 4 3 3 3 3 3 3 3 4 5 4 4 3 2 2 2 1 1 1 2 3 3
8 8 8 9 9 9 8 7 7 7 8 8 9 9 9 9 9 8 7 6 6 5 5 5 7 7 8 8 8 7 7 7 8 8 8 8 8 8 8 7 8 7 7 7 7 7 7 5 4 4 3 3 3 3 4 5 6 5 4 3 2 2 2 2 1 1 2 3 3
8 8 8 8 9 8 8 8 8 9 9 9 9 9 9 10 9 7 6 5 5 6 6 6 6 7 8 8 7 7 7 7 7 7 8 8 8 8 8 7 8 8 7 7 7 7 6 5 5 4 4 4 4 4 5 6 6 5 4 2 2 2 2 2 2 2 2 2 3
8 7 7 7 8 8 8 8 8 9 9 9 9 9 9 9 8 6 5 5 6 7 7 6 7 7 7 7 7 7 7 7 7 7 8 8 9 9 8 8 8 8 7 7 6 5 5 4 5 5 5 5 5 5 5 5 5 5 4 3 3 3 2 2 2 2 1 2 3
7 7 7 7 7 7 8 8 8 8 9 9 9 9 8 8 7 6 6 7 7 7 7 7 7 7 7 6 7 7 8 8 8 8 8 9 9 9 8 8 8 8 7 6 5 5 4 4 5 5 6 5 4 4 4 5 5 4 4 3 3 3 2 2 2 1 1 1 2
7 7 7 7 7 8 8 8 7 8 8 8 8 8 7 7 7 7 7 8 7 7 6 7 7 7 7 7 7 7 7 8 9 9 8 8 8 8 8 8 8 7 7 6 5 5 5 5 5 6 6 6 5 4 5 5 5 4 4 4 3 3 2 2 2 1 1 2 2
8 8 8 8 8 8 8 8 7 7 7 7 7 6 6 6 7 7 7 7 7 6 6 7 7 7 7 8 7 7 7 8 9 9 9 8 8 8 8 7 7 7 6 6 6 6 6 6 6 6 6 6 5 5 5 5 5 5 4 4 3 3 2 2 1 1 2 2 2
8 8 8 8 8 8 7 7 6 6 6 6 6 6 6 6 6 7 7 6 6 6 6 7 7 7 7 8 8 8 8 9 9 9 9 8 8 8 7 7 7 6 6 6 6 6 6 6 6 6 6 6 6 6 6 6 6 5 5 4 3 3 2 2 2 2 2 2 3
8 8 8 8 8 8 7 6 5 5 5 6 6 6 6 5 5 6 6 6 6 6 6 6 6 6 7 8 8 8 8 9 9 9 9 8 8 7 7 7 7 6 6 6 6 6 7 7 6 7 7 7 7 6 6 6 6 6 5 5 4 3 3 2 2 2 2 3 3
7 8 8 8 8 8 7 6 5 5 5 5 6 6 5 5 5 5 6 6 6 6 6 6 6 6 6 7 7 6 7 7 8 8 8 8 7 7 7 7 7 7 6 6 7 7 7 7 7 7 7 7 7 7 7 7 6 6 6 5 5 4 4 3 3 3 3 3 4
6 7 7 7 7 7 6 6 5 5 6 6 6 6 5 5 5 5 6 7 6 6 7 7 7 7 7 7 6 6 6 6 7 7 7 7 7 7 7 7 7 7 7 7 7 7 7 7 7 7 7 7 7 7 7 7 7 7 6 6 6 5 5 4 4 3 3 4 4
5 5 6 6 6 6 6 6 6 6 5 6 5 5 6 6 6 6 7 7 7 7 7 7 7 7 7 7 7 7 6 6 6 6 7 7 7 7 7 7 7 7 7 7 7 7 7 7 7 7 7 7 7 7 7 7 7 7 7 6 6 5 5 5 4 4 3 4 4
5 5 5 5 5 5 5 5 5 5 5 5 5 6 7 7 7 7 7 7 7 7 7 7 7 7 8 8 8 7 6 5 5 6 6 6 7 7 7 7 7 7 7 7 7 7 7 7 7 7 7 8 8 8 7 7 7 7 7 6 6 6 5 5 5 4 4 3 3
6 6 5 5 6 6 6 6 6 6 6 6 7 7 7 7 7 7 7 7 7 8 8 8 8 8 8 8 7 7 6 5 6 6 6 6 7 7 7 7 7 7 7 7 7 7 7 7 7 7 7 8 8 8 7 7 7 7 7 6 6 6 6 6 5 5 4 4 4
6 6 6 6 6 6 6 5 5 6 6 6 6 7 7 6 6 7 7 7 7 8 8 8 8 8 8 7 7 7 6 6 6 6 6 6 6 6 6 6 7 7 7 7 7 7 7 7 7 7 8 8 8 8 8 8 8 8 8 7 7 7 7 6 6 5 5 4 4
5 5 5 5 5 5 5 5 5 6 6 6 6 6 6 6 6 6 7 7 8 8 8 8 8 8 8 7 7 7 7 6 6 6 5 5 5 5 5 6 7 7 7 6 6 6 6 7 8 8 8 8 8 8 8 8 7 7 7 7 7 7 6 6 5 5 5 5 5
5 5 4 4 5 5 6 6 6 6 6 6 6 6 6 6 6 7 7 8 8 8 8 7 7 7 7 7 7 6 6 6 6 5 5 5 5 5 5 6 6 6 6 5 6 7 7 7 7 7 7 7 7 7 7 7 6 6 6 7 6 6 6 6 5 5 5 5 5
5 5 5 5 5 6 6 6 6 6 6 6 6 6 6 7 7 7 7 8 8 8 7 7 6 6 6 6 6 6 5 5 5 5 5 5 5 5 5 5 5 5 5 6 10 11 11 9 7 6 5 6 6 6 6 6 6 6 6 6 6 6 5 6 6 6 6 6 5
5 5 6 6 6 6 6 6 6 6 6 6 6 6 7 7 7 7 7 8 7 7 7 6 6 6 6 5 5 5 5 4 5 5 5 5 6 6 5 5 4 4 5 8 12 13 13 12 10 8 6 5 5 6 6 5 5 5 5 5 5 5 5 5 5 5 5 5 5
6 6 6 6 6 6 6 6 6 6 6 6 7 6 6 6 6 7 7 7 7 6 6 5 6 6 6 5 5 5 5 4 5 6 6 7 8 8 8 7 5 5 6 10 12 12 12 13 12 10 8 5 5 5 5 5 5 5 5 5 5 5 5 5 4 4 4 4 4
6 6 6 6 6 7 6 6 6 6 7 6 6 6 6 6 6 6 6 6 5 5 5 4 4 4 4 4 5 6 6 7 7 7 8 9 9 9 8 6 5 6 8 11 12 12 12 12 12 12 10 7 5 5 5 5 5 5 5 5 5 4 4 4 4 3 3 3 4
6 6 6 6 6 6 6 6 6 6 6 6 5 5 5 5 5 6 6 6 5 5 5 4 4 4 4 5 6 7 8 8 8 8 8 9 9 8 7 6 6 8 10 13 12 12 12 12 12 12 11 9 6 4 4 4 5 4 4 4 4 4 4 3 3 3 3 3 3
5 5 5 6 6 6 6 6 5 5 5 4 5 5 5 5 5 6 7 7 7 6 5 4 5 5 6 7 7 7 7 7 7 7 8 8 9 8 8 7 7 8 10 13 12 12 12 12 12 12 12 11 8 5 4 4 4 4 4 4 4 4 4 4 4 4 3 3 3
5 5 5 6 6 6 5 5 5 5 5 5 5 5 6 6 7 7 7 7 7 7 6 6 7 7 8 7 7 7 7 7 7 7 8 8 9 9 8 8 7 8 10 13 12 12 12 12 12 12 12 11 8 6 4 4 4 4 4 4 4 4 4 4 4 4 4 3 3
4 5 5 5 6 5 5 5 5 6 6 6 7 7 7 7 8 7 7 6 6 6 6 6 7 7 7 7 7 7 7 7 7 7 7 8 8 8 8 7 7 8 10 12 12 12 12 12 12 12 12 12 9 6 5 5 5 4 4 4 4 4 4 3 3 3 3 3 3
4 5 5 5 5 5 5 6 6 6 7 7 7 7 7 7 7 7 6 6 5 6 6 6 6 6 6 6 6 7 7 8 8 8 8 8 8 8 7 7 6 8 11 12 12 12 12 12 13 13 13 12 8 6 5 5 4 4 4 4 4 4 3 3 3 3 3 3 2
4 4 5 5 5 5 5 6 6 6 7 7 7 7 7 7 6 6 6 5 5 5 5 5 5 5 5 5 6 7 7 7 7 7 7 7 7 8 7 6 5 8 11 12 12 12 12 12 13 13 12 11 7 5 4 5 4 4 4 4 3 3 3 3 3 2 2 2 2
4 5 5 5 5 5 5 6 6 6 7 7 7 7 7 6 6 6 6 6 6 5 5 5 5 5 5 5 6 7 7 7 7 7 7 7 7 7 7 6 6 9 12 12 12 12 12 12 12 12 11 9 6 4 4 5 4 4 4 3 3 3 3 3 2 2 2 1 1
4 5 5 5 5 5 5 6 6 6 6 7 7 6 6 6 5 5 5 6 6 5 5 5 4 4 5 5 5 6 6 6 7 7 7 7 7 7 7 6 7 9 11 12 12 12 12 12 12 11 9 6 4 4 4 4 3 3 3 3 2 2 2 2 2 2 1 1 1
4 5 5 5 5 5 5 6 6 6 6 6 6 6 5 5 5 4 4 4 5 5 5 4 4 4 4 5 5 5 5 5 6 7 7 7 6 6 5 5 5 7 9 11 11 11 11 11 11 10 7 4 3 3 3 3 2 2 2 2 2 2 2 2 2 2 2 2 2
4 5 5 5 5 5 5 5 6 6 6 5 5 5 4 4 4 4 4 4 4 4 4 4 4 4 4 4 4 4 5 5 5 6 5 5 4 4 4 3 3 3 5 9 9 9 9 9 9 8 6 3 2 2 2 2 2 2 2 2 2 2 2 2 2 2 2 2 3
5 5 5 5 5 5 5 5 5 5 5 5 5 4 4 4 4 3 3 3 3 3 3 4 3 3 3 4 5 5 4 4 4 4 4 3 2 3 3 2 2 2 2 5 7 7 7 7 7 7 6 3 2 2 2 2 2 2 2 2 2 3 3 3 2 2 2 3 4
4 4 5 5 5 5 5 5 5 5 4 4 4 4 4 4 4 3 3 2 2 2 3 3 3 3 4 5 5 5 4 4 3 3 3 2 2 2 2 2 1 3 3 3 6 6 6 6 6 6 6 3 2 2 2 2 2 2 2 2 2 2 3 3 3 2 3 3 4
4 4 4 5 5 5 5 5 5 4 4 4 4 4 4 4 3 3 2 2 2 3 3 3 3 4 4 5 5 4 4 3 2 2 2 1 1 2 2 1 1 3 3 3 6 7 7 7 7 7 7 5 3 2 2 3 3 2 2 2 2 2 2 3 3 3 3 3 4
Wind_Direction
11 12 12 10 8 3 354 344 340 336 328 310 298 291 296 16 343 328 319 312 279 258 247 222 155 131 123 119 111 104 101 104 117 126 131 127 124 120 115 111 112 114 117 119 123 126 129 130 125 117 107 102 101 98 98 105 123 141 161 174 181 191 210 232 250 258 259 254 259
6 7 9 12 11 8 3 358 355 354 356 358 357 1 35 58 32 7 349 341 330 323 329 11 56 74 83 85 86 87 89 92 93 91 90 93 103 108 111 112 115 118 121 123 124 124 123 120 116 110 105 99 102 104 109 121 131 136 140 141 133 126 122 144 20 13 21 20 34
5 7 8 10 9 7 3 358 354 355 357 1 8 26 47 57 52 41 28 15 7 4 5 12 21 30 37 46 53 61 70 76 75 71 68 66 69 79 92 106 110 112 113 114 115 115 115 115 115 117 119 120 122 124 128 138 137 133 129 127 124 122 121 122 114 107 107 110 109
4 7 8 7 5 2 359 354 351 352 355 360 12 30 43 48 47 45 40 35 30 25 22 21 24 29 35 44 50 55 60 65 68 68 65 58 49 46 50 66 83 91 96 102 107 110 113 114 115 120 127 132 132 135 140 144 138 135 132 136 136 138 142 148 150 149 147 145 141
358 2 4 3 358 356 352 349 352 353 357 4 25 36 40 41 41 41 39 39 34 28 26 29 34 39 43 50 52 52 51 52 59 66 69 66 58 51 47 47 60 77 92 103 110 113 115 113 114 119 129 135 139 144 146 145 139 136 136 141 146 149 153 158 163 163 160 158 155
352 355 357 356 353 350 349 349 356 0 9 26 41 43 41 40 40 41 42 42 35 29 27 30 34 39 44 48 49 48 46 44 48 58 67 71 68 63 59 55 56 64 81 97 105 109 110 110 111 116 122 126 131 139 144 144 138 132 128 128 136 139 141 151 158 158 155 154 148
351 353 354 352 351 349 349 353 4 15 31 45 48 46 43 41 42 43 44 44 37 32 29 30 31 36 43 47 49 50 49 46 45 47 52 57 55 53 51 48 46 46 51 63 75 81 85 87 92 95 96 94 102 114 120 119 113 106 99 87 62 56 74 116 122 128 134 139 136
352 353 353 351 351 352 355 3 18 34 46 51 49 47 44 42 40 41 42 42 40 37 35 37 37 40 45 49 50 51 52 51 49 48 48 51 50 49 47 45 43 40 38 39 42 45 48 53 58 61 60 59 65 68 71 75 83 84 81 72 50 35 31 51 72 106 126 131 129
354 354 354 356 357 0 7 19 37 50 54 52 49 46 44 41 39 39 41 43 41 40 40 42 42 46 50 52 51 51 51 52 52 51 51 53 52 51 49 47 45 42 39 36 38 39 40 44 45 43 42 42 49 53 58 66 76 80 80 76 63 46 32 32 55 91 115 125 129
355 357 359 3 5 11 22 35 45 51 53 51 47 45 43 41 38 38 40 43 44 42 41 40 44 49 53 54 53 52 53 55 55 55 54 55 54 53 51 50 47 46 44 41 43 45 48 53 52 49 48 49 53 55 58 64 74 79 79 76 76 70 58 45 51 70 100 123 132
356 1 6 11 12 21 32 41 44 45 45 45 43 42 42 39 36 36 38 44 44 42 38 36 41 47 53 56 56 57 57 59 60 59 58 57 57 56 55 54 52 51 50 47 50 54 59 63 62 60 56 54 55 57 58 62 69 73 73 68 73 75 72 59 52 56 81 117 130
360 5 12 16 20 28 37 41 42 41 40 40 39 39 38 36 32 33 37 43 43 40 36 34 38 42 49 56 59 62 64 65 64 63 62 60 59 60 59 58 57 55 54 52 53 58 65 67 67 65 60 54 51 50 51 54 61 66 66 62 62 66 67 63 55 53 68 105 122
6 12 17 20 25 33 39 42 42 40 37 36 36 36 35 32 29 32 37 41 40 37 34 34 37 41 47 54 59 63 65 67 66 66 64 62 61 60 60 59 59 58 56 53 53 57 62 63 63 63 60 52 46 41 42 46 51 56 59 58 55 56 60 63 60 63 78 100 115
12 18 22 25 30 36 41 42 41 39 35 33 33 33 32 29 28 31 35 38 37 36 36 38 40 43 47 53 58 63 65 67 68 68 67 64 62 62 61 60 59 59 59 56 55 57 60 61 60 60 59 54 47 42 41 44 48 51 52 53 49 48 51 54 60 74 91 101 105
17 21 25 29 35 39 42 42 42 38 34 31 31 31 30 29 27 29 33 36 37 38 40 44 45 46 48 52 58 64 68 70 70 69 68 66 64 63 62 62 61 61 61 61 60 60 61 63 63 63 62 59 52 48 46 47 50 52 53 53 50 47 46 48 56 71 87 98 99
20 23 27 33 38 41 43 42 42 38 34 31 31 31 30 27 25 29 33 35 39 42 44 45 46 48 50 52 56 61 67 71 72 71 70 68 65 64 63 64 63 63 64 65 65 64 64 65 66 67 66 64 60 56 54 54 56 57 58 58 56 53 53 57 59 65 76 86 92
23 26 29 34 39 43 44 43 42 39 35 32 33 33 31 28 28 32 37 38 41 45 46 46 48 50 52 53 55 59 65 71 73 74 74 72 70 67 66 66 65 65 65 66 67 67 66 67 69 70 71 70 67 65 63 62 63 63 62 62 60 57 58 63 63 67 74 81 89
25 28 30 34 38 41 43 44 44 40 37 34 36 37 36 33 34 37 40 41 44 48 52 53 53 54 55 55 55 59 64 70 76 79 81 81 78 75 72 70 69 68 67 68 69 70 71 71 72 73 74 74 73 71 70 69 69 67 66 64 62 60 60 61 63 69 77 85 92
25 27 29 32 35 38 40 44 44 43 41 40 41 40 40 39 42 45 46 44 46 52 57 60 59 58 58 59 59 59 61 66 74 79 82 84 83 80 78 77 75 73 72 72 73 73 74 74 74 75 76 77 77 75 74 73 72 71 69 67 65 64 63 63 64 68 74 82 90
26 27 28 31 34 37 39 42 44 44 44 46 46 46 46 45 48 51 53 52 52 56 60 63 63 63 62 63 62 60 58 60 66 72 75 77 78 79 80 81 79 78 76 76 75 75 75 75 76 76 78 79 79 78 77 76 74 72 71 69 67 65 65 65 65 65 65 68 74
30 30 30 33 37 40 42 44 47 50 52 53 52 53 53 52 54 56 59 60 60 61 63 63 64 65 65 65 65 64 62 62 63 66 68 71 73 76 78 80 80 79 77 76 77 77 77 77 77 77 78 79 79 79 78 77 75 73 70 69 66 64 62 61 60 57 55 52 54
33 33 34 36 42 45 47 47 50 53 56 57 58 58 59 58 59 61 64 65 65 65 65 64 65 65 65 66 67 67 67 66 65 65 66 70 72 75 77 80 80 79 78 77 77 78 77 77 76 76 76 77 77 77 77 77 76 74 72 70 68 65 61 58 56 53 49 48 48
36 36 37 40 45 50 53 55 56 58 59 59 60 61 61 62 62 64 65 66 66 66 66 65 65 64 65 65 66 68 70 70 68 67 67 70 74 76 78 80 81 80 80 79 79 78 77 76 75 75 75 77 77 77 78 78 79 79 78 76 74 70 66 61 57 53 49 46 46
39 39 42 46 48 51 55 57 58 59 59 59 60 60 62 62 63 64 65 66 66 66 66 67 67 67 67 68 69 70 71 73 72 70 69 70 74 76 79 82 84 86 88 90 89 86 83 80 79 79 81 83 84 84 84 84 85 87 87 86 82 77 70 62 55 50 45 40 37
40 42 46 51 52 54 56 57 59 60 59 59 59 60 61 62 63 65 66 67 66 67 68 70 70 70 71 71 70 69 69 71 73 73 71 69 70 73 79 85 89 93 96 98 96 96 95 95 93 92 92 93 93 92 91 90 90 91 91 90 87 82 74 64 54 47 41 35 29
42 44 48 52 55 57 58 59 60 60 60 59 59 60 62 63 66 67 68 68 68 68 69 70 71 73 72 69 66 65 65 68 69 70 70 69 68 68 69 73 76 80 88 94 97 100 102 104 103 101 98 96 98 97 95 90 87 85 85 84 83 80 76 69 59 51 43 37 31
44 47 49 54 58 60 60 60 61 60 60 59 60 62 64 67 70 71 71 70 69 68 67 68 72 74 74 69 65 65 67 67 67 67 67 68 67 66 66 66 66 72 84 92 97 100 103 104 103 100 96 89 90 91 90 87 80 77 75 75 74 75 76 75 69 60 51 42 36
48 50 52 55 58 60 60 60 60 61 61 61 62 65 70 72 73 73 72 71 69 68 66 64 65 67 68 67 65 66 68 69 69 69 68 68 67 67 65 65 66 76 85 90 92 96 98 101 101 99 95 88 83 82 83 84 80 76 73 73 73 75 77 78 75 68 59 50 42
50 52 53 56 58 58 58 59 61 62 63 63 64 66 69 70 70 70 69 68 65 63 62 61 60 60 62 64 66 67 67 68 69 70 70 69 68 66 63 61 65 75 82 85 88 92 95 98 100 99 97 92 86 80 79 81 81 80 77 75 75 75 74 73 70 65 59 52 47
51 53 55 57 57 57 57 58 61 61 62 60 58 59 60 63 64 66 67 67 65 64 64 65 67 67 68 69 70 70 70 69 70 71 71 70 68 65 62 59 62 71 79 83 87 90 93 96 98 98 96 92 86 81 78 78 79 79 77 74 71 69 68 66 61 56 51 46 45
54 56 58 60 59 58 57 57 59 58 57 54 53 54 58 62 66 68 70 71 72 72 72 72 73 73 73 72 73 74 74 73 71 70 71 72 71 68 64 61 63 72 79 84 86 89 91 94 95 94 93 90 85 79 76 76 76 77 75 74 69 65 63 61 56 50 46 42 41
59 60 62 63 62 60 58 58 59 59 59 58 58 61 64 68 70 73 75 76 78 77 76 75 76 77 76 74 73 73 72 72 71 71 72 73 73 70 67 64 66 74 80 84 87 89 91 93 93 93 92 89 85 81 79 81 80 80 79 76 71 67 64 61 54 46 39 33 30
64 66 67 68 66 64 62 62 63 64 64 64 65 67 70 72 74 74 75 76 76 76 75 75 76 76 76 75 74 73 72 72 72 72 73 72 72 71 69 66 70 77 82 85 88 90 92 94 95 95 93 91 88 84 82 85 85 83 80 75 69 64 59 54 46 34 24 14 9
67 71 71 71 70 69 67 66 66 67 68 68 68 69 71 73 74 75 75 74 74 72 71 70 70 71 72 72 75 76 76 74 70 68 68 69 70 70 69 66 71 79 84 87 89 91 93 95 95 95 94 92 88 84 82 82 81 79 74 68 57 47 37 31 25 17 7 359 358
68 74 75 74 73 72 70 69 69 70 71 72 71 71 71 72 73 75 77 79 78 75 72 68 68 68 67 66 69 73 76 75 70 67 65 65 68 70 71 69 74 81 85 88 89 91 92 93 93 93 91 88 83 79 77 78 76 71 65 57 42 26 13 7 4 359 357 359 9
65 74 77 77 75 74 73 73 73 73 74 74 74 73 72 71 71 73 77 80 79 78 75 73 71 70 69 67 67 69 72 74 72 69 66 64 67 70 71 69 74 82 86 88 89 90 91 91 91 91 89 83 75 69 69 69 67 60 51 43 21 359 347 347 346 347 353 3 25
63 71 76 78 77 76 75 75 75 76 76 76 77 77 76 75 73 73 75 78 80 81 81 78 77 76 76 76 73 69 67 70 73 73 70 66 68 70 70 65 66 78 86 89 90 91 92 93 95 95 93 83 73 65 63 59 52 45 36 20 349 332 330 332 335 344 353 359 21
64 70 75 79 79 77 76 75 77 78 79 80 80 81 81 81 79 77 77 80 87 91 91 86 81 79 79 82 79 72 65 63 71 73 72 66 66 68 69 61 46 60 79 89 92 94 96 99 103 107 109 103 90 78 70 62 50 38 23 357 339 335 334 336 339 345 351 350 21
72 74 79 82 83 82 81 80 80 82 84 84 84 83 83 84 83 82 81 83 93 98 99 93 84 80 80 83 80 73 63 53 59 66 70 66 62 68 72 64 10 358 36 82 92 96 100 104 111 120 126 119 105 90 81 72 55 38 18 358 347 342 343 345 347 347 342 339 10
88 88 89 92 92 92 90 88 88 87 88 89 89 89 88 90 91 89 86 82 85 91 93 91 83 78 76 78 77 73 64 47 40 46 55 59 58 66 70 63 345 329 347 54 83 89 92 95 104 117 124 110 96 87 83 79 62 40 18 359 352 348 346 344 348 348 341 333 348
113 111 111 109 107 104 102 100 98 96 95 94 96 98 100 100 100 97 92 82 79 80 82 84 77 71 68 71 72 72 69 54 29 20 20 21 27 42 53 50 345 327 334 19 67 74 76 77 86 98 105 100 94 89 85 81 64 44 19 353 351 351 350 346 347 347 344 336 331